INTELSAT 33E DEB, 61995

Orbit data source: Space-Track

INTELSAT 33E DEB, 61995 is space debris in GEO originally from a launch on Wed, 24 Aug 2016 UTC launched from the French Guiana (FRGUI). Debris objects in space refer to the collection of defunct objects orbiting the Earth. Examples of debris include non-operational satellites, rocket bodies, and fragments generated from explosions, collisions, or faulty payload assembly.

Not visible in the next 10 days
Identifier
61995, 2016-053M
Orbit
GEO
Country
Flag of UnknownUnknown / ITSO
Related business
Manufacturer
Boeing/ES
Mission
Spacecraft
Bus & Motor
Unknown
Mass
Unknown
Launch date (UTC)
2016-08-24 (9 years ago)
Launch vehicle
Unknown
Launch site
French Guiana (FRGUI)
Object type
Payload
Rocket body
Debris
Shape & HBR
Unknown shape, 1.1 m
Radar Cross Section
RCS unknown

Expand to show TLE details & history
Last TLE update: 12 hours ago

TLE from 12 hours ago
0 INTELSAT 33E DEB
1 61995U 16053M   25291.96254810  .00000013  00000-0  00000-0 0  9993
2 61995   0.9207  85.4968 0051947 275.9621 358.5810  1.01033184  3686
Epoch: 2025-10-18T23:06Z
TLE epoch observation values (Epoch: 2025-10-18T23:06:04.155Z)
Latitude
-0.90247°
Longitude
-14.20304°
Altitude
35,355.386 km
Speed
3.099 km/s
True Right ascension
00h 00m 00s
True Declination
0° 54' 06"
Sunlit
Object was in daylight at epoch
Visualization orbit readout
Latitude
Unknown
Longitude
Unknown
Altitude
Unknown
Speed
Unknown
Apparent Right ascension
Unknown
Apparent Declination
Unknown
Sunlit
N/A
Visualization observer readout
Local Sidereal Time
05:59:00
Azimuth
Unknown
Elevation
Unknown
Doppler factor
Unknown
Orbital elements
Apogee altitude
35,793.501 km
Perigee altitude
35,357.627 km
Semi-major axis
41,953.701 km
Eccentricity
0.00519
Inclination
0.9207°
RAAN
85.4968°
Arg. of periapsis
275.9621°
True anomaly
358.56616°
Mean anomaly
358.581°
Eccentric anomaly
358.57359°
Mean motion
0.25257 °/min
Orbital period
1,425.33 mins
BSTAR
0
Loading maneuver chart data...
Computing Atmospheric mass density...
Loading historical data...
Loading historical data...
Loading historical data...
Loading historical data...
Loading historical data...
Loading historical data...
Loading historical data...

Documentation

Showing up to 5 results
|